This is the latest recevied weather packets stored in our database for station/object K0APR. If no packets are shown the sender has not sent any weather packets the latest 10 day(s).
| Time | Temp. | Humidity | Pressure | Rain* | Wind** | Luminosity | Snow |
|---|---|---|---|---|---|---|---|
| 1788037815 | 28.89° C | 63% | 1008.1 hPa | 0 mm | - | 229 W/m² | - |
| 1788037510 | 28.89° C | 64% | 1008.4 hPa | 0 mm | - | 292 W/m² | - |
| 1788037205 | 28.89° C | 64% | 1008.1 hPa | 0 mm | - | 229 W/m² | - |
| 1788036904 | 29.44° C | 63% | 1008.4 hPa | 0 mm | - | 228 W/m² | - |
| 1788036601 | 29.44° C | 63% | 1008.4 hPa | 0 mm | - | 297 W/m² | - |
| 1788036296 | 28.89° C | 64% | 1008.4 hPa | 0 mm | - | 641 W/m² | - |
| 1788035991 | 28.89° C | 64% | 1008.4 hPa | 0 mm | - | 265 W/m² | - |
| 1788035691 | 28.89° C | 64% | 1008.4 hPa | 0 mm | - | 280 W/m² | - |
| 1788035386 | 28.33° C | 66% | 1008.1 hPa | 0 mm | - | 307 W/m² | - |
| 1788035082 | 28.33° C | 66% | 1008.4 hPa | 0 mm | - | 295 W/m² | - |
| 1788034777 | 27.78° C | 67% | 1008.4 hPa | 0 mm | - | 372 W/m² | - |
| 1788034474 | 27.78° C | 68% | 1008.4 hPa | 0 mm | - | 199 W/m² | - |
| 1788034170 | 27.78° C | 69% | 1009.2 hPa | 0 mm | - | 158 W/m² | - |
| 1788033868 | 27.78° C | 69% | 1008.8 hPa | 0 mm | - | 153 W/m² | - |
| 1788033567 | 27.78° C | 69% | 1008.8 hPa | 0 mm | - | 143 W/m² | - |
| 1788033263 | 27.22° C | 69% | 1008.8 hPa | 0 mm | - | 134 W/m² | - |
| 1788032958 | 27.22° C | 71% | 1008.4 hPa | 0 mm | - | 131 W/m² | - |
| 1788032658 | 27.22° C | 70% | 1008.4 hPa | 0 mm | - | 134 W/m² | - |
| 1788032353 | 27.22° C | 70% | 1008.1 hPa | 0 mm | - | 150 W/m² | - |
| 1788032048 | 27.78° C | 68% | 1008.4 hPa | 0 mm | - | 141 W/m² | - |
| 1788031744 | 27.78° C | 69% | 1009.2 hPa | 0 mm | - | 109 W/m² | - |
| 1788031444 | 27.78° C | 69% | 1009.2 hPa | 0 mm | - | 115 W/m² | - |
| 1788031138 | 27.22° C | 68% | 1009.2 hPa | 0 mm | - | 150 W/m² | - |
| 1788030837 | 27.22° C | 69% | 1009.2 hPa | 0 mm | - | 162 W/m² | - |
| 1788030537 | 27.22° C | 69% | 1008.8 hPa | 0 mm | - | 147 W/m² | - |
* Rain latest hour (hover to see other rain measurements)
** Current wind speed in m/s (hover to see current wind gust speed)